Regional Weather Roundup
Issued by NWS Mobile, AL

Home | Current Version | Previous Version | Text Only | Print | Product List | Glossary On
Versions: 1 2 3 4 5 6 7 8 9 10 11 12 13 14 15 16 17 18 19 20 21 22 23 24 25 26 27
000
ASUS44 KMOB 222013
RWRMOB
REGIONAL WEATHER ROUNDUP
NATIONAL WEATHER SERVICE MOBILE AL
300 PM CDT SAT JUL 22 2017

NOTE: "FAIR" INDICATES FEW OR NO CLOUDS BELOW 12,000 FEET WITH NO
      SIGNIFICANT WEATHER AND/OR OBSTRUCTIONS TO VISIBILITY.

  * THESE STATIONS ARE PART OF THE UNIVERSITY OF SOUTH ALABAMA
    MESONET AND ARE NOT UNDER NWS OR FAA QUALITY CONTROL.

ALZ061>064-222100-
COASTAL ALABAMA

CITY           SKY/WX    TMP DP  RH WIND       PRES   REMARKS
MOBILE REG APT CLOUDY    81  71  71 CALM      30.00F
BROOKLEY FIELD MOSUNNY   88  77  69 W8        29.99F HX 100
USA CAMPUS*    NOT AVBL
DOG RIVER*     NOT AVBL


CITY           SKY/WX    TMP DP  RH WIND       PRES   REMARKS
GULF SHORES    SUNNY     88  78  71 S13G21    29.99F HX 102

$$

ALZ051>060-222100-
INTERIOR SOUTHWEST AND SOUTH CENTRAL ALABAMA

CITY           SKY/WX    TMP DP  RH WIND       PRES   REMARKS
GREENVILLE     MOSUNNY   91  71  51 SE3       29.97F HX  97
EVERGREEN      SUNNY     92  73  53 CALM      29.97F HX 100
ATMORE*        NOT AVBL
ANDALUSIA/OPP  MOSUNNY   93  72  50 CALM      29.97F HX 101
ANDALUSIA*     NOT AVBL
FLORALA APT    PTSUNNY   89  72  56 S22       29.99F HX  96
FLORALA*       NOT AVBL

$$

FLZ001>006-222100-
WESTERN FLORIDA PANHANDLE

CITY           SKY/WX    TMP DP  RH WIND       PRES   REMARKS
PENSACOLA      MOSUNNY   91  74  57 S14       29.98F HX 100
NAS PENSACOLA  PTSUNNY   89  75  63 S13       29.98F HX  99
MILTON         MOSUNNY   89  77  67 SW14      29.97F HX 101
WHTNG S FIELD  NOT AVBL


CITY           SKY/WX    TMP DP  RH WIND       PRES   REMARKS
JAY*           NOT AVBL
DUKE FIELD     MOSUNNY   78  69  75 S3        29.99F
CRESTVIEW      CLOUDY    80  71  74 S3        30.01F
VALPARAISO     PTSUNNY   90  74  59 S8        29.99F HX  99
DESTIN         SUNNY     91  72  53 S7        29.99F HX  98

$$

MSZ076-079-222100-
INTERIOR SOUTHEAST MISSISSIPPI

CITY           SKY/WX    TMP DP  RH WIND       PRES   REMARKS
LEAKESVILLE*   NOT AVBL
AGRICOLA*      NOT AVBL

$$

MARINE OBSERVATIONS

STATION/POSITION TIME  TEMP    WIND        PRES    WAVE
                       AIR SEA DIR/SP/G            HT/PER
                 (UTC) (F)     (DEG/KT/KT) (MB)    (FT/S)
PASCAGOULA       1948   88     200/  6/ 10 1015.6F
PETIT BOIS ISLND 1948   87     200/  8/ 10 1016.6F
GRAND BAY        1845   85     160/  5     1017.0S
KATRINA CUT      1930   86     200/  8     1016.3F
CEDAR POINT      1930   86     220/  9     1015.9F
E DAUPHIN ISLAND 1900   86     170/  8/  9 1015.8F
MIDDLE BAY LIGHT 1930   86     190/ 13     1015.6F
USCG MOBILE BAY  1948   86 86  250/  7/ 12 1015.9F
STATE DOCKS      1942   89 88              1015.3F
MEAHER PARK      1930   86     180/ 12     1015.6F
WEEKS BAY        1845   90                   N/A
FORT MORGAN      1948   86     200/ 10/ 12   N/A
12 S ORANGE BCH  1950   85 90  190/ 10/ 12 1015.4F   1/ 5
PENSACOLA BAY    1942   91 88              1015.9F
64 S DAUPHIN ISL 1950   83 86  180/ 10/ 14 1016.0F   1/ 4
67 S FORT MORGAN 1930   81     200/ 12     1016.3F

$$

SELECTED LOCATIONS ACROSS THE REGION

CITY           SKY/WX    TMP DP  RH WIND       PRES   REMARKS
NEW ORLEANS    CLOUDY    81  76  84 SW8       30.02R THUNDER
GULFPORT       RAIN      85  74  69 CALM      29.98F
PASCAGOULA AP  SUNNY     89  74  60 VRB6      29.98F THUNDER HX  98
PASCAGOULA*    NOT AVBL
HATTIESBURG    CLOUDY    92  73  53 VRB5      29.96F HX 100
LAUREL         PTSUNNY   91  73  55 SE6       29.97F HX  99
MERIDIAN       MOSUNNY   93  75  55 S6        29.96F HX 104
JACKSON        PTSUNNY   93  74  53 CALM      29.95F HX 103
MONTGOMERY     MOSUNNY   92  72  51 S5        29.96F HX  99
TROY           SUNNY     89  73  59 CALM      29.98F HX  97
ASHFORD*       NOT AVBL
DOTHAN         MOSUNNY   93  72  50 W6        30.00F HX 101
PANAMA CITY    CLOUDY    87  75  67 S13       29.98F HX  96

$$





USA.gov is the U.S. government's official web portal to all federal, state and local government web resources and services.